<?xml version="1.0" encoding="UTF-8" standalone="no" ?>
<gpx xmlns="http://www.topografix.com/GPX/1/1" xmlns:xsi="http://www.w3.org/2001/XMLSchema-instance" xsi:schemaLocation="http://www.topografix.com/GPX/1/1 http://www.topografix.com/GPX/1/1/gpx.xsd" version="1.1" creator="VisuGPX - https://www.visugpx.com">
  <metadata>
    <name>GITER Poitou Charentes : boucle 86</name>
    <desc><![CDATA[Partie en Vienne de la Boucle centrale
[url]http://cdte86.free.fr/spip.php?article137[/url]]]></desc>
  </metadata>
  <trk>
    <name><![CDATA[Trk015]]></name>
    <trkseg>
      <trkpt lat="46.0682" lon="0.68452">
        <ele>134</ele>
        <time>2007-04-22T21:48:37Z</time>
      </trkpt>
      <trkpt lat="46.07063" lon="0.68451">
        <ele>136</ele>
        <time>2007-04-22T21:48:37Z</time>
      </trkpt>
      <trkpt lat="46.0724" lon="0.68556">
        <ele>143</ele>
        <time>2007-04-22T21:48:37Z</time>
      </trkpt>
      <trkpt lat="46.07343" lon="0.68559">
        <ele>137</ele>
        <time>2007-04-22T21:48:37Z</time>
      </trkpt>
      <trkpt lat="46.07452" lon="0.68607">
        <ele>137</ele>
        <time>2007-04-22T21:48:37Z</time>
      </trkpt>
      <trkpt lat="46.07621" lon="0.68757">
        <ele>142</ele>
        <time>2007-04-22T21:48:37Z</time>
      </trkpt>
      <trkpt lat="46.07852" lon="0.68886">
        <ele>138</ele>
        <time>2007-04-22T21:48:37Z</time>
      </trkpt>
      <trkpt lat="46.08055" lon="0.68932">
        <ele>128</ele>
        <time>2007-04-22T21:48:37Z</time>
      </trkpt>
      <trkpt lat="46.08225" lon="0.68849">
        <ele>132</ele>
        <time>2007-04-22T21:48:37Z</time>
      </trkpt>
      <trkpt lat="46.08351" lon="0.68871">
        <ele>132</ele>
        <time>2007-04-22T21:48:37Z</time>
      </trkpt>
      <trkpt lat="46.08481" lon="0.68861">
        <ele>128</ele>
        <time>2007-04-22T21:48:37Z</time>
      </trkpt>
      <trkpt lat="46.08568" lon="0.68968">
        <ele>138</ele>
        <time>2007-04-22T21:48:37Z</time>
      </trkpt>
      <trkpt lat="46.08883" lon="0.68952">
        <ele>138</ele>
        <time>2007-04-22T21:48:37Z</time>
      </trkpt>
      <trkpt lat="46.09044" lon="0.68902">
        <ele>134</ele>
        <time>2007-04-22T21:48:37Z</time>
      </trkpt>
      <trkpt lat="46.09202" lon="0.6891">
        <ele>130</ele>
        <time>2007-04-22T21:48:37Z</time>
      </trkpt>
      <trkpt lat="46.09317" lon="0.69101">
        <ele>155</ele>
        <time>2007-04-22T21:48:37Z</time>
      </trkpt>
      <trkpt lat="46.09368" lon="0.6952">
        <ele>177</ele>
        <time>2007-04-22T21:48:37Z</time>
      </trkpt>
      <trkpt lat="46.09548" lon="0.69469">
        <ele>170</ele>
        <time>2007-04-22T21:48:37Z</time>
      </trkpt>
      <trkpt lat="46.0958" lon="0.695">
        <ele>170</ele>
        <time>2007-04-22T21:48:37Z</time>
      </trkpt>
      <trkpt lat="46.09655" lon="0.6944">
        <ele>172</ele>
        <time>2007-04-22T21:48:37Z</time>
      </trkpt>
      <trkpt lat="46.09845" lon="0.69208">
        <ele>166</ele>
        <time>2007-04-22T21:48:37Z</time>
      </trkpt>
      <trkpt lat="46.09947" lon="0.69101">
        <ele>160</ele>
        <time>2007-04-22T21:48:37Z</time>
      </trkpt>
      <trkpt lat="46.10199" lon="0.68809">
        <ele>131</ele>
        <time>2007-04-22T21:48:37Z</time>
      </trkpt>
      <trkpt lat="46.10464" lon="0.68775">
        <ele>139</ele>
        <time>2007-04-22T21:48:37Z</time>
      </trkpt>
      <trkpt lat="46.10754" lon="0.68566">
        <ele>128</ele>
        <time>2007-04-22T21:48:37Z</time>
      </trkpt>
      <trkpt lat="46.1082" lon="0.68447">
        <ele>132</ele>
        <time>2007-04-22T21:48:37Z</time>
      </trkpt>
      <trkpt lat="46.11016" lon="0.68642">
        <ele>162</ele>
        <time>2007-04-22T21:48:37Z</time>
      </trkpt>
      <trkpt lat="46.11144" lon="0.68787">
        <ele>172</ele>
        <time>2007-04-22T21:48:37Z</time>
      </trkpt>
      <trkpt lat="46.11544" lon="0.69079">
        <ele>196</ele>
        <time>2007-04-22T21:48:37Z</time>
      </trkpt>
      <trkpt lat="46.11654" lon="0.68901">
        <ele>193</ele>
        <time>2007-04-22T21:48:37Z</time>
      </trkpt>
      <trkpt lat="46.11764" lon="0.68697">
        <ele>203</ele>
        <time>2007-04-22T21:48:37Z</time>
      </trkpt>
      <trkpt lat="46.11878" lon="0.68487">
        <ele>206</ele>
        <time>2007-04-22T21:48:37Z</time>
      </trkpt>
      <trkpt lat="46.11988" lon="0.6836">
        <ele>207</ele>
        <time>2007-04-22T21:48:37Z</time>
      </trkpt>
      <trkpt lat="46.12014" lon="0.68263">
        <ele>214</ele>
        <time>2007-04-22T21:48:37Z</time>
      </trkpt>
      <trkpt lat="46.11993" lon="0.68076">
        <ele>215</ele>
        <time>2007-04-22T21:48:37Z</time>
      </trkpt>
      <trkpt lat="46.12138" lon="0.67812">
        <ele>190</ele>
        <time>2007-04-22T21:48:37Z</time>
      </trkpt>
      <trkpt lat="46.12235" lon="0.67369">
        <ele>167</ele>
        <time>2007-04-22T21:48:37Z</time>
      </trkpt>
      <trkpt lat="46.12308" lon="0.67147">
        <ele>155</ele>
        <time>2007-04-22T21:48:37Z</time>
      </trkpt>
      <trkpt lat="46.12351" lon="0.67016">
        <ele>161</ele>
        <time>2007-04-22T21:48:37Z</time>
      </trkpt>
      <trkpt lat="46.12434" lon="0.66871">
        <ele>165</ele>
        <time>2007-04-22T21:48:37Z</time>
      </trkpt>
      <trkpt lat="46.12517" lon="0.66714">
        <ele>169</ele>
        <time>2007-04-22T21:48:37Z</time>
      </trkpt>
      <trkpt lat="46.12576" lon="0.66705">
        <ele>168</ele>
        <time>2007-04-22T21:48:37Z</time>
      </trkpt>
      <trkpt lat="46.12591" lon="0.66841">
        <ele>184</ele>
        <time>2007-04-22T21:48:37Z</time>
      </trkpt>
      <trkpt lat="46.12673" lon="0.6689">
        <ele>195</ele>
        <time>2007-04-22T21:48:37Z</time>
      </trkpt>
      <trkpt lat="46.12728" lon="0.66979">
        <ele>203</ele>
        <time>2007-04-22T21:48:37Z</time>
      </trkpt>
      <trkpt lat="46.12839" lon="0.66866">
        <ele>203</ele>
        <time>2007-04-22T21:48:37Z</time>
      </trkpt>
    </trkseg>
  </trk>
</gpx>